QPF
0.03 0.04 0.04 0.04 0.05 0.04 0.04 0.02 0.01 0.01 0.01 0.01 0.00 0.00 0.00 0.01 0.01 0.00 0.00 0.00 0.00 0.00 0.00 0.00 0.00 0.00 0.00 0.00 0.00 0.00 0.00 0.00 0.00 0.00 0.00 0.00 0.00 0.00 0.01 0.00 0.00 0.00 0.00 0.00
0.05 0.03 0.03 0.04 0.05 0.05 0.03 0.02 0.01 0.01 0.01 0.01 0.00 0.00 0.00 0.00 0.00 0.00 0.00 0.00 0.00 0.00 0.00 0.00 0.00 0.00 0.00 0.00 0.00 0.00 0.00 0.00 0.00 0.00 0.00 0.00 0.00 0.00 0.00 0.01 0.01 0.01 0.01 0.00
0.03 0.03 0.03 0.04 0.05 0.04 0.03 0.01 0.01 0.01 0.02 0.01 0.00 0.00 0.00 0.00 0.00 0.00 0.00 0.00 0.00 0.00 0.00 0.00 0.00 0.00 0.00 0.00 0.00 0.00 0.00 0.00 0.00 0.00 0.00 0.00 0.00 0.00 0.00 0.00 0.00 0.00 0.00 0.00
0.04 0.03 0.04 0.03 0.02 0.02 0.02 0.01 0.01 0.01 0.01 0.00 0.00 0.00 0.00 0.00 0.00 0.00 0.00 0.00 0.00 0.00 0.00 0.00 0.00 0.00 0.00 0.00 0.00 0.00 0.00 0.00 0.00 0.00 0.00 0.00 0.00 0.00 0.00 0.00 0.00 0.00 0.00 0.00
0.02 0.03 0.03 0.02 0.02 0.02 0.02 0.02 0.02 0.02 0.01 0.00 0.00 0.00 0.00 0.00 0.00 0.00 0.00 0.00 0.00 0.00 0.00 0.00 0.00 0.00 0.00 0.00 0.00 0.00 0.00 0.00 0.00 0.00 0.00 0.00 0.00 0.00 0.00 0.00 0.00 0.00 0.00 0.01
0.04 0.03 0.03 0.03 0.02 0.02 0.02 0.02 0.01 0.01 0.01 0.00 0.00 0.00 0.00 0.00 0.00 0.00 0.00 0.00 0.00 0.00 0.00 0.00 0.00 0.00 0.00 0.00 0.00 0.00 0.00 0.00 0.00 0.00 0.00 0.00 0.00 0.00 0.00 0.00 0.00 0.00 0.00 0.01
0.04 0.03 0.02 0.02 0.03 0.02 0.01 0.01 0.01 0.00 0.00 0.00 0.00 0.00 0.00 0.00 0.00 0.00 0.00 0.00 0.00 0.00 0.00 0.00 0.00 0.00 0.00 0.00 0.00 0.00 0.00 0.00 0.00 0.00 0.00 0.00 0.00 0.00 0.00 0.00 0.00 0.00 0.00 0.01
0.02 0.01 0.01 0.01 0.01 0.00 0.00 0.01 0.00 0.00 0.00 0.00 0.00 0.00 0.00 0.00 0.00 0.00 0.00 0.00 0.00 0.00 0.00 0.00 0.00 0.00 0.00 0.00 0.00 0.00 0.00 0.00 0.00 0.00 0.00 0.00 0.00 0.00 0.00 0.00 0.00 0.00 0.00 0.00
0.01 0.01 0.01 0.01 0.00 0.00 0.00 0.00 0.00 0.00 0.00 0.00 0.00 0.00 0.00 0.00 0.00 0.00 0.00 0.00 0.00 0.00 0.00 0.00 0.00 0.00 0.00 0.00 0.00 0.00 0.00 0.00 0.00 0.00 0.00 0.00 0.00 0.00 0.00 0.00 0.00 0.00 0.00 0.00
0.00 0.00 0.01 0.01 0.00 0.00 0.00 0.00 0.00 0.00 0.00 0.00 0.00 0.00 0.00 0.00 0.00 0.00 0.00 0.00 0.00 0.00 0.00 0.00 0.00 0.00 0.00 0.00 0.00 0.00 0.00 0.00 0.00 0.00 0.00 0.00 0.00 0.00 0.00 0.00 0.00 0.00 0.00 0.01
0.00 0.00 0.00 0.00 0.00 0.00 0.00 0.00 0.00 0.00 0.00 0.00 0.00 0.00 0.00 0.00 0.00 0.00 0.00 0.00 0.00 0.00 0.00 0.00 0.00 0.00 0.00 0.00 0.00 0.00 0.00 0.00 0.00 0.00 0.00 0.00 0.00 0.00 0.00 0.00 0.00 0.00 0.00 0.01
0.00 0.00 0.00 0.00 0.00 0.00 0.00 0.00 0.00 0.00 0.00 0.00 0.00 0.00 0.00 0.00 0.00 0.00 0.00 0.00 0.00 0.00 0.00 0.00 0.00 0.00 0.00 0.00 0.00 0.00 0.00 0.00 0.00 0.00 0.00 0.00 0.00 0.00 0.00 0.00 0.00 0.00 0.01 0.01
0.00 0.00 0.00 0.00 0.00 0.00 0.00 0.00 0.00 0.00 0.00 0.00 0.00 0.00 0.00 0.00 0.00 0.00 0.00 0.00 0.00 0.00 0.00 0.00 0.00 0.00 0.00 0.00 0.00 0.00 0.00 0.00 0.00 0.00 0.00 0.00 0.00 0.00 0.00 0.00 0.00 0.00 0.01 0.01
0.00 0.00 0.00 0.00 0.00 0.00 0.00 0.00 0.00 0.00 0.00 0.00 0.00 0.00 0.00 0.00 0.00 0.00 0.00 0.00 0.00 0.00 0.00 0.00 0.00 0.00 0.00 0.00 0.00 0.00 0.00 0.00 0.00 0.00 0.00 0.00 0.00 0.00 0.00 0.00 0.00 0.00 0.00 0.01
0.00 0.00 0.00 0.00 0.00 0.00 0.00 0.00 0.00 0.00 0.00 0.00 0.00 0.00 0.00 0.00 0.00 0.00 0.00 0.00 0.00 0.00 0.00 0.00 0.00 0.00 0.00 0.00 0.00 0.00 0.00 0.00 0.00 0.00 0.00 0.00 0.00 0.00 0.00 0.00 0.00 0.00 0.00 0.00
0.00 0.00 0.00 0.00 0.00 0.00 0.00 0.00 0.00 0.00 0.00 0.00 0.00 0.00 0.00 0.00 0.00 0.00 0.00 0.00 0.00 0.00 0.00 0.00 0.00 0.00 0.00 0.00 0.00 0.00 0.00 0.00 0.00 0.00 0.00 0.00 0.00 0.00 0.00 0.00 0.00 0.00 0.00 0.00
0.00 0.00 0.00 0.00 0.00 0.00 0.00 0.00 0.00 0.00 0.00 0.00 0.00 0.00 0.00 0.00 0.00 0.00 0.00 0.00 0.00 0.00 0.00 0.00 0.00 0.00 0.00 0.00 0.00 0.00 0.00 0.00 0.00 0.00 0.00 0.00 0.00 0.00 0.00 0.00 0.00 0.00 0.00 0.00
0.00 0.00 0.00 0.00 0.00 0.00 0.00 0.00 0.00 0.00 0.00 0.00 0.00 0.00 0.00 0.00 0.00 0.00 0.00 0.00 0.00 0.00 0.00 0.00 0.00 0.00 0.00 0.00 0.00 0.00 0.00 0.00 0.00 0.00 0.00 0.00 0.00 0.00 0.00 0.00 0.00 0.00 0.00 0.00
0.00 0.00 0.00 0.00 0.00 0.00 0.00 0.00 0.00 0.00 0.00 0.00 0.00 0.00 0.00 0.00 0.00 0.00 0.00 0.00 0.00 0.00 0.00 0.00 0.00 0.00 0.00 0.00 0.00 0.00 0.00 0.00 0.00 0.00 0.00 0.00 0.00 0.00 0.00 0.00 0.00 0.00 0.00 0.00
0.00 0.00 0.00 0.00 0.00 0.00 0.00 0.00 0.00 0.00 0.00 0.00 0.00 0.00 0.00 0.00 0.00 0.00 0.00 0.00 0.00 0.00 0.00 0.00 0.00 0.00 0.00 0.00 0.00 0.00 0.00 0.00 0.00 0.00 0.00 0.00 0.00 0.00 0.00 0.00 0.00 0.00 0.00 0.00
0.00 0.00 0.00 0.00 0.00 0.00 0.00 0.00 0.00 0.00 0.00 0.00 0.00 0.00 0.00 0.00 0.00 0.00 0.00 0.00 0.00 0.00 0.00 0.00 0.00 0.00 0.00 0.00 0.00 0.00 0.00 0.00 0.00 0.00 0.00 0.00 0.00 0.00 0.00 0.00 0.00 0.00 0.00 0.00
0.00 0.00 0.00 0.00 0.00 0.00 0.00 0.00 0.00 0.00 0.00 0.00 0.00 0.00 0.00 0.00 0.00 0.00 0.00 0.00 0.00 0.00 0.00 0.00 0.00 0.00 0.00 0.00 0.00 0.00 0.00 0.00 0.00 0.00 0.00 0.00 0.00 0.00 0.00 0.00 0.00 0.00 0.00 0.00
0.00 0.00 0.00 0.00 0.00 0.00 0.00 0.00 0.00 0.00 0.00 0.00 0.00 0.00 0.00 0.00 0.00 0.00 0.00 0.00 0.00 0.00 0.00 0.00 0.00 0.00 0.00 0.00 0.00 0.00 0.00 0.00 0.00 0.00 0.00 0.00 0.00 0.00 0.00 0.00 0.00 0.00 0.00 0.00
0.00 0.00 0.00 0.00 0.00 0.00 0.00 0.00 0.00 0.00 0.00 0.00 0.00 0.00 0.00 0.00 0.00 0.00 0.00 0.00 0.00 0.00 0.00 0.00 0.00 0.00 0.00 0.00 0.00 0.00 0.00 0.00 0.00 0.00 0.00 0.00 0.00 0.00 0.00 0.00 0.00 0.00 0.00 0.00
0.00 0.00 0.00 0.00 0.00 0.00 0.00 0.00 0.00 0.00 0.00 0.00 0.00 0.00 0.00 0.00 0.00 0.00 0.00 0.00 0.00 0.00 0.00 0.00 0.00 0.00 0.00 0.00 0.00 0.00 0.00 0.00 0.00 0.00 0.00 0.00 0.00 0.00 0.00 0.00 0.00 0.00 0.00 0.00
0.00 0.00 0.00 0.00 0.00 0.00 0.00 0.00 0.00 0.00 0.00 0.00 0.00 0.00 0.00 0.00 0.00 0.00 0.00 0.00 0.00 0.00 0.00 0.00 0.00 0.00 0.00 0.00 0.00 0.00 0.00 0.00 0.00 0.00 0.00 0.00 0.00 0.00 0.00 0.00 0.00 0.00 0.00 0.00
MSLP
1011.79 1012.98 1013.97 1014.70 1015.18 1015.42 1015.50 1015.47 1015.42 1015.37 1015.34 1015.34 1015.33 1015.30 1015.24 1015.14 1015.03 1014.94 1014.89 1014.90 1014.98 1015.12 1015.29 1015.44 1015.56 1015.60 1015.58 1015.51 1015.41 1015.32 1015.26 1015.27 1015.33 1015.43 1015.52 1015.56 1015.52 1015.38 1015.14 1014.82 1014.47 1014.12 1013.81 1013.57
1012.38 1013.36 1014.14 1014.70 1015.05 1015.25 1015.35 1015.42 1015.48 1015.56 1015.64 1015.70 1015.70 1015.63 1015.48 1015.28 1015.06 1014.89 1014.79 1014.80 1014.91 1015.10 1015.32 1015.53 1015.67 1015.72 1015.69 1015.59 1015.45 1015.34 1015.29 1015.31 1015.40 1015.53 1015.65 1015.72 1015.69 1015.54 1015.27 1014.90 1014.50 1014.10 1013.75 1013.49
1012.77 1013.52 1014.09 1014.49 1014.77 1014.98 1015.16 1015.38 1015.61 1015.85 1016.05 1016.17 1016.16 1016.01 1015.74 1015.40 1015.05 1014.77 1014.60 1014.59 1014.72 1014.97 1015.26 1015.53 1015.72 1015.80 1015.78 1015.67 1015.52 1015.39 1015.33 1015.36 1015.47 1015.62 1015.78 1015.87 1015.85 1015.70 1015.41 1015.03 1014.59 1014.16 1013.78 1013.49
1012.97 1013.48 1013.86 1014.15 1014.40 1014.68 1015.01 1015.42 1015.86 1016.28 1016.60 1016.77 1016.72 1016.48 1016.05 1015.53 1015.02 1014.59 1014.34 1014.29 1014.43 1014.73 1015.09 1015.44 1015.70 1015.84 1015.84 1015.74 1015.59 1015.45 1015.38 1015.41 1015.53 1015.70 1015.88 1016.00 1016.00 1015.87 1015.59 1015.20 1014.76 1014.32 1013.93 1013.63
1013.02 1013.32 1013.54 1013.76 1014.04 1014.43 1014.95 1015.58 1016.25 1016.86 1017.30 1017.50 1017.40 1017.02 1016.42 1015.70 1014.98 1014.40 1014.03 1013.93 1014.07 1014.41 1014.84 1015.28 1015.62 1015.82 1015.87 1015.79 1015.65 1015.51 1015.43 1015.44 1015.56 1015.75 1015.94 1016.08 1016.12 1016.02 1015.78 1015.43 1015.01 1014.59 1014.21 1013.90
1012.99 1013.10 1013.21 1013.40 1013.75 1014.30 1015.03 1015.90 1016.78 1017.56 1018.10 1018.30 1018.13 1017.61 1016.81 1015.88 1014.96 1014.21 1013.72 1013.55 1013.68 1014.04 1014.55 1015.06 1015.48 1015.76 1015.86 1015.81 1015.68 1015.53 1015.44 1015.45 1015.55 1015.73 1015.94 1016.11 1016.18 1016.13 1015.95 1015.65 1015.29 1014.91 1014.55 1014.26
1012.96 1012.92 1012.96 1013.16 1013.60 1014.31 1015.25 1016.32 1017.40 1018.31 1018.91 1019.10 1018.84 1018.17 1017.19 1016.05 1014.94 1014.03 1013.42 1013.18 1013.29 1013.68 1014.23 1014.81 1015.30 1015.64 1015.79 1015.78 1015.67 1015.52 1015.41 1015.39 1015.48 1015.65 1015.86 1016.04 1016.16 1016.16 1016.04 1015.82 1015.53 1015.21 1014.91 1014.64
1012.96 1012.83 1012.83 1013.07 1013.61 1014.46 1015.56 1016.80 1018.00 1019.00 1019.62 1019.78 1019.42 1018.62 1017.47 1016.17 1014.91 1013.86 1013.16 1012.85 1012.93 1013.33 1013.91 1014.53 1015.08 1015.47 1015.67 1015.69 1015.59 1015.44 1015.32 1015.28 1015.34 1015.49 1015.70 1015.89 1016.04 1016.09 1016.04 1015.89 1015.67 1015.42 1015.18 1014.96
1012.99 1012.82 1012.83 1013.12 1013.75 1014.70 1015.91 1017.24 1018.50 1019.51 1020.12 1020.21 1019.77 1018.85 1017.59 1016.18 1014.81 1013.68 1012.92 1012.57 1012.63 1013.01 1013.60 1014.24 1014.82 1015.24 1015.47 1015.52 1015.43 1015.29 1015.17 1015.11 1015.15 1015.28 1015.47 1015.67 1015.83 1015.92 1015.92 1015.83 1015.68 1015.50 1015.32 1015.15
1013.03 1012.87 1012.92 1013.27 1013.96 1014.96 1016.21 1017.54 1018.78 1019.75 1020.28 1020.30 1019.78 1018.80 1017.48 1016.02 1014.63 1013.48 1012.68 1012.32 1012.36 1012.72 1013.30 1013.93 1014.51 1014.95 1015.19 1015.26 1015.20 1015.08 1014.96 1014.90 1014.93 1015.04 1015.21 1015.40 1015.57 1015.67 1015.70 1015.66 1015.57 1015.45 1015.32 1015.20
1013.04 1012.94 1013.06 1013.46 1014.17 1015.18 1016.38 1017.64 1018.78 1019.63 1020.06 1019.99 1019.42 1018.41 1017.10 1015.67 1014.32 1013.20 1012.44 1012.08 1012.11 1012.45 1012.99 1013.59 1014.15 1014.57 1014.83 1014.92 1014.90 1014.81 1014.72 1014.67 1014.70 1014.81 1014.96 1015.14 1015.29 1015.40 1015.44 1015.43 1015.37 1015.28 1015.20 1015.12
1013.01 1013.01 1013.20 1013.64 1014.35 1015.29 1016.38 1017.49 1018.46 1019.15 1019.45 1019.29 1018.68 1017.68 1016.44 1015.10 1013.85 1012.83 1012.14 1011.82 1011.84 1012.15 1012.64 1013.20 1013.71 1014.12 1014.38 1014.50 1014.52 1014.48 1014.44 1014.43 1014.49 1014.60 1014.75 1014.91 1015.05 1015.15 1015.19 1015.18 1015.14 1015.08 1015.03 1014.98
1012.96 1013.08 1013.35 1013.81 1014.47 1015.30 1016.22 1017.12 1017.87 1018.36 1018.50 1018.24 1017.61 1016.67 1015.53 1014.34 1013.24 1012.35 1011.76 1011.49 1011.52 1011.80 1012.24 1012.73 1013.19 1013.57 1013.84 1013.99 1014.06 1014.09 1014.12 1014.18 1014.28 1014.42 1014.58 1014.74 1014.87 1014.95 1014.99 1014.98 1014.95 1014.91 1014.87 1014.84
1012.95 1013.18 1013.52 1013.97 1014.55 1015.23 1015.93 1016.58 1017.07 1017.33 1017.30 1016.95 1016.30 1015.43 1014.42 1013.40 1012.48 1011.75 1011.27 1011.07 1011.12 1011.37 1011.74 1012.17 1012.58 1012.93 1013.20 1013.40 1013.54 1013.65 1013.77 1013.91 1014.07 1014.26 1014.44 1014.61 1014.74 1014.82 1014.85 1014.85 1014.82 1014.79 1014.76 1014.75
1013.04 1013.36 1013.73 1014.15 1014.62 1015.10 1015.56 1015.93 1016.15 1016.16 1015.95 1015.50 1014.85 1014.04 1013.17 1012.33 1011.59 1011.03 1010.67 1010.54 1010.61 1010.83 1011.15 1011.52 1011.88 1012.21 1012.49 1012.73 1012.95 1013.15 1013.37 1013.60 1013.84 1014.08 1014.30 1014.49 1014.63 1014.72 1014.76 1014.77 1014.75 1014.73 1014.72 1014.72
1013.29 1013.66 1014.02 1014.37 1014.69 1014.96 1015.15 1015.24 1015.18 1014.95 1014.56 1014.01 1013.35 1012.61 1011.87 1011.19 1010.62 1010.21 1009.97 1009.91 1010.00 1010.20 1010.48 1010.79 1011.12 1011.43 1011.73 1012.02 1012.30 1012.60 1012.91 1013.22 1013.54 1013.84 1014.11 1014.33 1014.50 1014.61 1014.67 1014.70 1014.70 1014.70 1014.71 1014.71
1013.71 1014.07 1014.37 1014.61 1014.76 1014.81 1014.74 1014.55 1014.22 1013.77 1013.22 1012.58 1011.90 1011.22 1010.59 1010.04 1009.63 1009.34 1009.21 1009.20 1009.31 1009.50 1009.75 1010.03 1010.33 1010.64 1010.95 1011.28 1011.64 1012.00 1012.39 1012.78 1013.16 1013.52 1013.83 1014.09 1014.29 1014.43 1014.53 1014.59 1014.63 1014.65 1014.67 1014.68
1014.23 1014.52 1014.73 1014.82 1014.79 1014.62 1014.31 1013.87 1013.32 1012.68 1011.98 1011.27 1010.57 1009.94 1009.39 1008.96 1008.65 1008.48 1008.42 1008.47 1008.59 1008.78 1009.01 1009.27 1009.56 1009.87 1010.21 1010.58 1010.97 1011.40 1011.84 1012.28 1012.71 1013.10 1013.45 1013.74 1013.97 1014.15 1014.29 1014.39 1014.46 1014.52 1014.55 1014.57
1014.75 1014.93 1015.00 1014.93 1014.71 1014.34 1013.83 1013.19 1012.46 1011.67 1010.88 1010.11 1009.41 1008.81 1008.33 1007.98 1007.77 1007.67 1007.67 1007.76 1007.90 1008.09 1008.32 1008.58 1008.86 1009.18 1009.54 1009.94 1010.37 1010.82 1011.29 1011.76 1012.20 1012.61 1012.98 1013.29 1013.55 1013.76 1013.94 1014.08 1014.20 1014.28 1014.33 1014.35
1015.13 1015.16 1015.07 1014.84 1014.45 1013.92 1013.25 1012.47 1011.63 1010.76 1009.91 1009.12 1008.43 1007.87 1007.44 1007.16 1007.00 1006.96 1007.00 1007.12 1007.28 1007.49 1007.72 1007.98 1008.28 1008.61 1008.99 1009.40 1009.84 1010.31 1010.78 1011.24 1011.68 1012.09 1012.45 1012.77 1013.06 1013.30 1013.51 1013.69 1013.85 1013.96 1014.02 1014.03
1015.26 1015.12 1014.87 1014.49 1013.97 1013.32 1012.56 1011.70 1010.81 1009.91 1009.06 1008.29 1007.63 1007.10 1006.72 1006.48 1006.37 1006.36 1006.44 1006.58 1006.76 1006.98 1007.23 1007.51 1007.82 1008.17 1008.56 1008.97 1009.42 1009.87 1010.33 1010.77 1011.19 1011.57 1011.92 1012.25 1012.54 1012.81 1013.05 1013.27 1013.45 1013.59 1013.67 1013.68
1015.06 1014.77 1014.37 1013.87 1013.26 1012.54 1011.74 1010.88 1009.99 1009.12 1008.31 1007.58 1006.97 1006.49 1006.15 1005.95 1005.86 1005.88 1005.97 1006.12 1006.33 1006.56 1006.84 1007.14 1007.47 1007.84 1008.24 1008.65 1009.08 1009.52 1009.95 1010.36 1010.74 1011.10 1011.44 1011.75 1012.06 1012.35 1012.62 1012.87 1013.09 1013.25 1013.35 1013.36
1014.55 1014.12 1013.62 1013.04 1012.38 1011.64 1010.85 1010.03 1009.19 1008.39 1007.64 1006.98 1006.42 1005.99 1005.68 1005.50 1005.43 1005.45 1005.56 1005.73 1005.95 1006.21 1006.50 1006.83 1007.19 1007.58 1007.98 1008.40 1008.82 1009.23 1009.63 1010.01 1010.36 1010.70 1011.02 1011.34 1011.65 1011.97 1012.27 1012.56 1012.81 1013.00 1013.12 1013.14
1013.81 1013.29 1012.71 1012.09 1011.42 1010.71 1009.96 1009.20 1008.44 1007.71 1007.04 1006.44 1005.93 1005.53 1005.25 1005.08 1005.01 1005.04 1005.15 1005.33 1005.57 1005.85 1006.18 1006.54 1006.93 1007.33 1007.75 1008.17 1008.58 1008.98 1009.35 1009.71 1010.04 1010.37 1010.69 1011.02 1011.36 1011.70 1012.04 1012.37 1012.65 1012.88 1013.03 1013.07
1012.98 1012.40 1011.80 1011.18 1010.52 1009.85 1009.16 1008.47 1007.77 1007.11 1006.49 1005.93 1005.46 1005.07 1004.79 1004.62 1004.55 1004.57 1004.68 1004.88 1005.13 1005.45 1005.81 1006.20 1006.62 1007.06 1007.49 1007.92 1008.33 1008.72 1009.09 1009.44 1009.78 1010.11 1010.45 1010.81 1011.17 1011.56 1011.94 1012.31 1012.64 1012.91 1013.09 1013.18
1012.20 1011.62 1011.03 1010.43 1009.81 1009.18 1008.53 1007.88 1007.23 1006.60 1006.00 1005.45 1004.97 1004.57 1004.27 1004.08 1003.99 1004.01 1004.12 1004.33 1004.61 1004.96 1005.36 1005.79 1006.25 1006.72 1007.17 1007.62 1008.05 1008.45 1008.83 1009.19 1009.55 1009.91 1010.29 1010.68 1011.10 1011.53 1011.96 1012.38 1012.76 1013.07 1013.30 1013.43
Thickness
5725 5716 5710 5718 5725 5728 5724 5719 5718 5725 5736 5728 5722 5724 5732 5735 5733 5729 5726 5723 5721 5721 5723 5722 5719 5716 5711 5707 5702 5698 5694 5691 5687 5683 5679 5675 5672 5671 5670 5669 5668 5667 5666 5666
5710 5710 5725 5731 5729 5727 5723 5717 5716 5724 5733 5728 5721 5722 5731 5734 5733 5732 5729 5725 5723 5721 5720 5719 5717 5714 5710 5705 5701 5697 5693 5690 5686 5682 5678 5674 5671 5668 5667 5666 5665 5664 5663 5663
5708 5719 5732 5729 5723 5720 5719 5717 5718 5718 5723 5724 5719 5715 5724 5732 5735 5735 5733 5730 5726 5722 5719 5717 5715 5712 5708 5704 5701 5698 5693 5689 5686 5682 5678 5674 5670 5667 5664 5663 5662 5662 5661 5660
5713 5725 5728 5724 5721 5721 5713 5727 5726 5720 5709 5700 5709 5692 5713 5722 5726 5730 5730 5727 5725 5724 5721 5718 5715 5711 5708 5705 5702 5697 5693 5689 5686 5682 5677 5672 5667 5662 5661 5659 5658 5659 5658 5658
5712 5721 5722 5719 5724 5725 5721 5727 5722 5715 5706 5696 5699 5691 5701 5716 5720 5726 5728 5728 5726 5724 5722 5718 5716 5713 5710 5706 5702 5698 5693 5689 5686 5681 5677 5672 5667 5663 5661 5659 5658 5657 5657 5656
5717 5727 5728 5726 5731 5730 5725 5716 5707 5696 5690 5682 5695 5688 5693 5706 5719 5727 5730 5729 5728 5725 5722 5719 5717 5713 5709 5706 5702 5698 5693 5690 5686 5682 5677 5672 5668 5664 5661 5659 5657 5655 5655 5654
5709 5719 5729 5732 5722 5723 5718 5698 5680 5678 5669 5675 5693 5689 5695 5720 5726 5729 5732 5730 5729 5725 5721 5718 5715 5712 5708 5705 5702 5698 5693 5690 5686 5682 5678 5673 5669 5666 5662 5659 5656 5654 5652 5652
5698 5700 5722 5730 5725 5716 5711 5701 5679 5670 5665 5672 5688 5685 5706 5728 5733 5735 5735 5733 5729 5725 5721 5719 5716 5712 5709 5706 5702 5698 5694 5690 5687 5682 5679 5675 5671 5667 5663 5660 5657 5655 5653 5652
5697 5702 5726 5732 5732 5722 5705 5698 5697 5677 5674 5669 5677 5693 5714 5731 5732 5732 5731 5730 5727 5725 5723 5720 5717 5713 5710 5706 5703 5699 5695 5691 5687 5684 5680 5676 5672 5668 5665 5662 5659 5656 5654 5653
5711 5703 5718 5728 5728 5721 5715 5698 5683 5674 5665 5663 5674 5685 5695 5719 5725 5728 5727 5727 5727 5726 5723 5721 5718 5715 5711 5708 5704 5700 5696 5692 5689 5685 5681 5678 5674 5670 5667 5663 5660 5658 5656 5654
5716 5703 5708 5717 5715 5712 5705 5697 5683 5670 5669 5659 5662 5681 5714 5721 5728 5727 5728 5729 5728 5726 5724 5722 5719 5716 5712 5708 5704 5700 5696 5693 5689 5686 5682 5678 5674 5671 5668 5664 5662 5659 5657 5655
5712 5699 5693 5707 5721 5724 5718 5705 5689 5680 5673 5664 5661 5682 5727 5726 5729 5730 5731 5731 5731 5729 5727 5724 5720 5716 5712 5708 5704 5700 5697 5693 5690 5686 5682 5678 5675 5672 5668 5665 5663 5660 5658 5656
5711 5698 5685 5690 5700 5714 5713 5706 5698 5685 5671 5658 5661 5688 5727 5728 5731 5731 5732 5732 5731 5730 5727 5723 5719 5715 5712 5708 5705 5701 5698 5694 5691 5687 5683 5679 5675 5672 5669 5666 5664 5661 5658 5656
5717 5698 5690 5686 5692 5704 5707 5705 5695 5687 5673 5667 5674 5693 5717 5726 5729 5732 5732 5733 5731 5729 5727 5723 5719 5716 5713 5709 5706 5702 5699 5695 5692 5687 5683 5679 5676 5673 5670 5667 5664 5662 5659 5657
5715 5700 5702 5702 5707 5708 5708 5707 5699 5694 5692 5685 5695 5698 5717 5727 5731 5734 5735 5733 5731 5729 5727 5725 5721 5717 5713 5710 5706 5703 5699 5696 5692 5687 5683 5680 5677 5674 5670 5668 5665 5662 5660 5658
5707 5702 5701 5701 5707 5704 5703 5707 5704 5701 5701 5698 5702 5708 5729 5733 5733 5733 5734 5733 5731 5730 5729 5727 5724 5719 5715 5712 5708 5704 5700 5696 5692 5687 5684 5681 5677 5674 5671 5668 5665 5662 5660 5658
5697 5695 5688 5685 5694 5700 5695 5710 5710 5709 5711 5709 5706 5721 5734 5733 5733 5735 5736 5734 5734 5734 5732 5729 5726 5722 5718 5714 5710 5705 5702 5697 5692 5688 5684 5681 5677 5674 5671 5668 5665 5662 5659 5657
5695 5687 5677 5677 5687 5682 5703 5724 5722 5717 5721 5721 5725 5732 5735 5737 5740 5742 5741 5738 5736 5736 5734 5731 5728 5724 5720 5716 5712 5707 5702 5697 5692 5688 5684 5681 5677 5674 5671 5667 5664 5662 5659 5656
5698 5687 5671 5667 5672 5680 5705 5722 5721 5716 5720 5732 5730 5735 5737 5737 5737 5738 5744 5743 5742 5740 5737 5734 5731 5726 5721 5716 5712 5706 5700 5696 5691 5688 5685 5682 5678 5674 5670 5667 5664 5661 5658 5656
5689 5686 5672 5663 5672 5674 5702 5727 5730 5723 5716 5738 5736 5735 5733 5730 5719 5731 5746 5745 5742 5740 5737 5733 5729 5724 5719 5715 5710 5704 5699 5694 5691 5688 5685 5682 5678 5674 5670 5667 5664 5661 5658 5656
5682 5674 5669 5662 5665 5679 5712 5724 5724 5704 5712 5740 5739 5737 5731 5730 5736 5743 5746 5744 5741 5738 5735 5731 5726 5721 5717 5713 5708 5702 5697 5694 5692 5689 5685 5681 5677 5674 5670 5667 5663 5660 5658 5655
5678 5669 5664 5658 5661 5678 5720 5718 5711 5717 5733 5737 5738 5738 5734 5737 5740 5740 5740 5739 5736 5732 5729 5725 5721 5716 5713 5710 5705 5700 5695 5694 5691 5687 5683 5679 5676 5673 5670 5665 5662 5659 5656 5654
5677 5681 5676 5677 5689 5711 5717 5719 5725 5727 5727 5733 5734 5737 5736 5734 5734 5735 5734 5732 5730 5728 5724 5720 5716 5711 5707 5704 5702 5697 5695 5692 5687 5683 5679 5676 5673 5669 5667 5663 5660 5657 5654 5651
5681 5682 5678 5678 5694 5707 5712 5717 5722 5725 5726 5732 5733 5734 5733 5731 5732 5730 5728 5725 5724 5721 5718 5715 5710 5706 5702 5699 5697 5695 5692 5688 5683 5679 5675 5671 5668 5665 5662 5660 5657 5654 5651 5648
5679 5675 5672 5676 5690 5700 5713 5716 5720 5724 5726 5728 5730 5731 5730 5729 5727 5726 5723 5721 5719 5716 5712 5709 5705 5701 5698 5694 5691 5689 5686 5683 5678 5674 5670 5667 5664 5660 5657 5655 5652 5650 5648 5645
5672 5670 5667 5675 5691 5689 5700 5712 5716 5716 5719 5722 5723 5725 5727 5726 5725 5723 5720 5718 5714 5710 5706 5702 5698 5695 5692 5689 5686 5683 5680 5677 5673 5668 5664 5661 5657 5654 5651 5648 5646 5645 5643 5642